| time (UTC) | temp F | wind direction | speed knots | gust knots | rain 1hr in | rain 24hr in | rain mn in | humidity % | barometer mb |
| 20260506033002 | 76 | 115 | 0.0 | 3.5 | 0.00 | 0.00 | 0.00 | 88 | 1006.1 |
| 20260506031504 | 76 | 180 | 0.9 | 4.3 | 0.00 | 0.00 | 0.00 | 87 | 1005.8 |
| 20260506030005 | 77 | 92 | 0.9 | 6.1 | 0.00 | 0.00 | 0.00 | 86 | 1005.6 |
| 20260506024503 | 77 | 76 | 1.7 | 7.0 | 0.00 | 0.00 | 0.00 | 85 | 1005.4 |
| 20260506023002 | 77 | 82 | 0.0 | 4.3 | 0.00 | 0.00 | 0.00 | 84 | 1005.0 |
| 20260506021502 | 77 | 79 | 0.0 | 3.5 | 0.00 | 0.00 | 0.00 | 84 | 1004.7 |
| 20260506020003 | 77 | 103 | 0.9 | 3.5 | 0.00 | 0.00 | 0.00 | 83 | 1004.4 |
| 20260506014501 | 78 | 68 | 0.9 | 2.6 | 0.00 | 0.00 | 0.00 | 83 | 1004.4 |
| 20260506013002 | 78 | 78 | 0.9 | 2.6 | 0.00 | 0.00 | 0.00 | 82 | 1004.3 |
| 20260506011505 | 79 | 111 | 0.9 | 2.6 | 0.00 | 0.00 | 0.00 | 80 | 1004.3 |
| 20260506010005 | 80 | 90 | 0.0 | 1.7 | 0.00 | 0.00 | 0.00 | 78 | 1004.3 |
| 20260506004508 | 81 | 106 | 0.0 | 1.7 | 0.00 | 0.00 | 0.00 | 77 | 1004.3 |
| 20260506003002 | 82 | 106 | 0.0 | 0.9 | 0.00 | 0.00 | 0.00 | 75 | 1004.2 |
| 20260506001502 | 82 | 252 | 0.9 | 2.6 | 0.00 | 0.00 | 0.00 | 75 | 1004.3 |
| 20260506000004 | 82 | 252 | 1.7 | 6.1 | 0.00 | 0.00 | 0.00 | 73 | 1004.1 |
| 20260505234502 | 83 | 217 | 0.0 | 4.3 | 0.00 | 0.00 | 0.00 | 73 | 1003.9 |
| 20260505233002 | 83 | 169 | 0.9 | 4.3 | 0.00 | 0.00 | 0.00 | 72 | 1003.8 |
| 20260505231502 | 83 | 224 | 1.7 | 7.0 | 0.00 | 0.00 | 0.00 | 72 | 1003.8 |
| 20260505230007 | 83 | 223 | 2.6 | 7.8 | 0.00 | 0.00 | 0.00 | 70 | 1003.7 |
| 20260505224502 | 84 | 248 | 3.5 | 7.8 | 0.00 | 0.00 | 0.00 | 69 | 1003.7 |
| 20260505223002 | 84 | 223 | 3.5 | 9.6 | 0.00 | 0.00 | 0.00 | 69 | 1003.7 |
| 20260505221503 | 85 | 244 | 1.7 | 7.0 | 0.00 | 0.00 | 0.00 | 68 | 1003.7 |
| 20260505220003 | 85 | 295 | 1.7 | 10.4 | 0.00 | 0.00 | 0.00 | 68 | 1003.7 |
| 20260505214505 | 85 | 218 | 2.6 | 10.4 | 0.00 | 0.00 | 0.00 | 67 | 1004.1 |
| 20260505213003 | 85 | 243 | 3.5 | 11.3 | 0.00 | 0.00 | 0.00 | 67 | 1004.2 |
| 20260505211502 | 86 | 240 | 5.2 | 9.6 | 0.00 | 0.00 | 0.00 | 66 | 1004.1 |
| 20260505210004 | 85 | 192 | 1.7 | 8.7 | 0.00 | 0.00 | 0.00 | 69 | 1004.5 |
| 20260505204502 | 85 | 288 | 1.7 | 7.8 | 0.00 | 0.00 | 0.00 | 69 | 1004.5 |
| 20260505203002 | 84 | 215 | 1.7 | 10.4 | 0.00 | 0.00 | 0.00 | 70 | 1004.9 |
| 20260505201501 | 85 | 108 | 1.7 | 7.0 | 0.00 | 0.00 | 0.00 | 70 | 1005.1 |
| 20260505200005 | 84 | 236 | 4.3 | 9.6 | 0.00 | 0.00 | 0.00 | 70 | 1005.4 |
| 20260505194501 | 83 | 55 | 1.7 | 5.2 | 0.00 | 0.00 | 0.00 | 72 | 1005.5 |
| 20260505193001 | 83 | 333 | 2.6 | 7.8 | 0.00 | 0.00 | 0.00 | 73 | 1005.8 |
| 20260505191501 | 82 | 217 | 1.7 | 9.6 | 0.00 | 0.00 | 0.00 | 73 | 1005.8 |
| 20260505190005 | 82 | 278 | 1.7 | 7.8 | 0.00 | 0.00 | 0.00 | 72 | 1005.9 |
| 20260505184501 | 82 | 230 | 1.7 | 7.8 | 0.00 | 0.00 | 0.00 | 74 | 1006.1 |
| 20260505183001 | 81 | 275 | 4.3 | 9.6 | 0.00 | 0.00 | 0.00 | 74 | 1006.2 |
| 20260505181502 | 79 | 217 | 2.6 | 7.8 | 0.00 | 0.00 | 0.00 | 78 | 1006.6 |
| 20260505180004 | 78 | 213 | 2.6 | 8.7 | 0.00 | 0.00 | 0.00 | 80 | 1006.5 |
| 20260505174502 | 77 | 205 | 4.3 | 9.6 | 0.00 | 0.00 | 0.00 | 80 | 1006.8 |
| 20260505173002 | 76 | 250 | 3.5 | 9.6 | 0.00 | 0.00 | 0.00 | 81 | 1006.9 |
| 20260505171502 | 76 | 233 | 3.5 | 8.7 | 0.00 | 0.00 | 0.00 | 82 | 1006.9 |
| 20260505170003 | 75 | 234 | 2.6 | 8.7 | 0.00 | 0.00 | 0.00 | 84 | 1007.1 |
| 20260505164501 | 74 | 225 | 3.5 | 9.6 | 0.00 | 0.00 | 0.00 | 85 | 1007.2 |
| 20260505163000 | 73 | 254 | 4.3 | 10.4 | 0.00 | 0.00 | 0.00 | 86 | 1007.0 |
| 20260505161501 | 73 | 238 | 3.5 | 7.8 | 0.00 | 0.00 | 0.00 | 87 | 1007.1 |
| 20260505153004 | 71 | 223 | 1.7 | 7.0 | 0.00 | 0.00 | 0.00 | 90 | 1007.4 |
| 20260505151601 | 71 | 225 | 2.6 | 7.0 | 0.00 | 0.00 | 0.00 | 91 | 1007.3 |
| 20260505151500 | 70 | 242 | 2.6 | 7.0 | 0.00 | 0.00 | 0.00 | 91 | 1007.2 |
| 20260505130105 | 70 | 217 | 2.6 | 9.6 | 0.00 | 0.00 | 0.00 | 91 | 1006.4 |
| 20260505124613 | 70 | 221 | 3.5 | 7.8 | 0.00 | 0.00 | 0.00 | 91 | 1006.0 |
| 20260505123102 | 70 | 174 | 3.5 | 7.8 | 0.00 | 0.00 | 0.00 | 91 | 1006.0 |
| 20260505123000 | 70 | 240 | 2.6 | 7.8 | 0.00 | 0.00 | 0.00 | 91 | 1005.9 |
| 20260505121600 | 69 | 242 | 2.6 | 7.8 | 0.00 | 0.00 | 0.00 | 91 | 1005.8 |
| 20260505120003 | 69 | 178 | 4.3 | 9.6 | 0.00 | 0.00 | 0.00 | 91 | 1005.6 |
| 20260505114604 | 69 | 213 | 1.7 | 5.2 | 0.00 | 0.00 | 0.00 | 90 | 1005.6 |
| 20260505113115 | 69 | 251 | 1.7 | 7.8 | 0.00 | 0.00 | 0.00 | 90 | 1005.4 |
| 20260505113002 | 69 | 213 | 1.7 | 7.8 | 0.00 | 0.00 | 0.00 | 90 | 1005.5 |
| 20260505111602 | 69 | 248 | 1.7 | 8.7 | 0.00 | 0.00 | 0.00 | 91 | 1005.5 |
| 20260505101600 | 69 | 228 | 2.6 | 7.8 | 0.00 | 0.00 | 0.00 | 90 | 1005.9 |
| 20260505100005 | 69 | 213 | 3.5 | 9.6 | 0.00 | 0.00 | 0.00 | 89 | 1005.8 |
| 20260505094600 | 69 | 198 | 2.6 | 7.8 | 0.00 | 0.00 | 0.00 | 89 | 1005.8 |
| 20260505093106 | 69 | 215 | 2.6 | 7.0 | 0.00 | 0.00 | 0.00 | 89 | 1006.0 |
| 20260505091600 | 69 | 232 | 3.5 | 7.8 | 0.00 | 0.00 | 0.00 | 88 | 1005.9 |
| 20260505090059 | 69 | 288 | 3.5 | 8.7 | 0.00 | 0.00 | 0.00 | 88 | 1006.2 |
| 20260505090001 | 69 | 256 | 3.5 | 10.4 | 0.00 | 0.00 | 0.00 | 88 | 1006.2 |
| 20260505084559 | 69 | 248 | 2.6 | 8.7 | 0.00 | 0.00 | 0.00 | 88 | 1006.1 |
| 20260505083104 | 69 | 302 | 2.6 | 8.7 | 0.00 | 0.00 | 0.00 | 88 | 1006.2 |
| 20260505083002 | 69 | 9 | 3.5 | 8.7 | 0.00 | 0.00 | 0.00 | 89 | 1006.2 |
| 20260505081600 | 69 | 236 | 2.6 | 11.3 | 0.00 | 0.00 | 0.00 | 89 | 1006.6 |
| 20260505080112 | 70 | 255 | 3.5 | 9.6 | 0.00 | 0.00 | 0.00 | 88 | 1006.7 |
| 20260505080002 | 70 | 213 | 3.5 | 9.6 | 0.00 | 0.00 | 0.00 | 88 | 1006.7 |
| 20260505074600 | 70 | 259 | 2.6 | 7.8 | 0.00 | 0.00 | 0.00 | 88 | 1006.8 |
| 20260505073107 | 70 | 273 | 3.5 | 8.7 | 0.00 | 0.00 | 0.00 | 87 | 1006.8 |
| 20260505071601 | 70 | 230 | 1.7 | 8.7 | 0.00 | 0.00 | 0.00 | 87 | 1007.0 |
| 20260505070100 | 70 | 232 | 3.5 | 9.6 | 0.00 | 0.00 | 0.00 | 87 | 1007.2 |
| 20260505070001 | 70 | 277 | 4.3 | 9.6 | 0.00 | 0.00 | 0.00 | 87 | 1007.1 |
| 20260505064603 | 70 | 283 | 2.6 | 8.7 | 0.00 | 0.00 | 0.00 | 87 | 1007.4 |
| 20260505063103 | 70 | 223 | 2.6 | 10.4 | 0.00 | 0.00 | 0.00 | 87 | 1007.5 |
| 20260505061600 | 70 | 13 | 2.6 | 9.6 | 0.00 | 0.00 | 0.00 | 87 | 1007.9 |
| 20260505060101 | 70 | 237 | 0.9 | 8.7 | 0.00 | 0.00 | 0.00 | 86 | 1007.8 |
| 20260505060005 | 70 | 163 | 1.7 | 8.7 | 0.00 | 0.00 | 0.00 | 86 | 1007.8 |
| 20260505054502 | 70 | 318 | 1.7 | 7.8 | 0.00 | 0.00 | 0.00 | 86 | 1007.8 |
| 20260505053004 | 71 | 194 | 1.7 | 8.7 | 0.00 | 0.00 | 0.00 | 86 | 1007.8 |
| 20260505051502 | 71 | 239 | 1.7 | 11.3 | 0.00 | 0.00 | 0.00 | 85 | 1007.9 |
| 20260505041503 | 71 | 16 | 0.9 | 8.7 | 0.00 | 0.00 | 0.00 | 84 | 1007.7 |
| 20260505040005 | 72 | 108 | 0.9 | 4.3 | 0.00 | 0.00 | 0.00 | 83 | 1007.7 |
| 20260505034502 | 72 | 53 | 0.0 | 3.5 | 0.00 | 0.00 | 0.00 | 83 | 1007.8 |